Voltar ao catálogo

SL-8 DEB

AtivoLEO
NORAD 21138·DEBRIS·🇷🇺 Russia

Lançado Feb 12, 1991 de Plesetsk Cosmodrome

Loading…

Próximas Passagens (próximas 24 horas)

TLE

AtualizadoSource: Space-Track

Época: Sep 14, 2026, 12:28 UTC

1 21138U 91009Q   26257.52005855  .00000013  00000-0  21197-3 0  9993
2 21138  74.0828 181.1203 0216129 114.2130 358.4650 12.29192480596824

Acompanhe SL-8 DEB em tempo real com AllMySat

Download on the App Store